| time (UTC) | temp F | wind direction | speed knots | gust knots | rain 1hr in | rain 24hr in | rain mn in | humidity % | barometer mb |
| 20260901224227 | 90 | 0 | 0.0 | 0.0 | 0.00 | 0.00 | 0.00 | 73 | 993.1 |
| 20260901222026 | 90 | 0 | 0.0 | 0.0 | 0.00 | 0.00 | 0.00 | 72 | 993.1 |
| 20260901220526 | 91 | 0 | 0.0 | 0.0 | 0.00 | 0.00 | 0.00 | 71 | 993.1 |
| 20260901213524 | 91 | 0 | 0.0 | 0.0 | 0.00 | 0.00 | 0.00 | 68 | 993.1 |
| 20260901212022 | 92 | 0 | 0.0 | 0.0 | 0.00 | 0.00 | 0.00 | 66 | 993.2 |
| 20260901211921 | 93 | 0 | 0.0 | 0.0 | 0.00 | 0.00 | 0.00 | 63 | 993.2 |
| 20260901205719 | 93 | 0 | 0.0 | 0.0 | 0.00 | 0.00 | 0.00 | 61 | 993.3 |
| 20260901203521 | 93 | 0 | 0.0 | 0.0 | 0.00 | 0.00 | 0.00 | 61 | 993.3 |
| 20260901202020 | 93 | 0 | 0.0 | 0.0 | 0.00 | 0.00 | 0.00 | 57 | 993.4 |
| 20260901200518 | 93 | 0 | 0.0 | 0.0 | 0.00 | 0.00 | 0.00 | 60 | 993.4 |
| 20260901195018 | 94 | 0 | 0.0 | 0.0 | 0.00 | 0.00 | 0.00 | 57 | 993.6 |
| 20260901194907 | 94 | 0 | 0.0 | 0.0 | 0.00 | 0.00 | 0.00 | 57 | 993.7 |
| 20260901192016 | 95 | 0 | 0.0 | 0.0 | 0.00 | 0.00 | 0.00 | 57 | 993.8 |
| 20260901190515 | 96 | 0 | 0.0 | 0.0 | 0.00 | 0.00 | 0.00 | 57 | 994.0 |
| 20260901185013 | 96 | 0 | 0.0 | 0.0 | 0.00 | 0.00 | 0.00 | 52 | 994.2 |
| 20260901183522 | 96 | 0 | 0.0 | 0.0 | 0.00 | 0.00 | 0.00 | 56 | 994.4 |
| 20260901182018 | 96 | 0 | 0.0 | 0.0 | 0.00 | 0.00 | 0.00 | 56 | 994.4 |
| 20260901180549 | 97 | 0 | 0.0 | 0.0 | 0.00 | 0.00 | 0.00 | 54 | 994.4 |
| 20260901175041 | 96 | 0 | 0.0 | 0.0 | 0.00 | 0.00 | 0.00 | 52 | 994.5 |
| 20260901174244 | 96 | 0 | 0.0 | 0.0 | 0.00 | 0.00 | 0.00 | 55 | 994.5 |
| 20260901173424 | 96 | 0 | 0.0 | 0.0 | 0.00 | 0.00 | 0.00 | 55 | 994.6 |
| 20260901170529 | 96 | 0 | 0.0 | 0.0 | 0.00 | 0.00 | 0.00 | 58 | 994.8 |
| 20260901165020 | 95 | 0 | 0.0 | 0.0 | 0.00 | 0.00 | 0.00 | 60 | 994.9 |
| 20260901163521 | 93 | 0 | 0.0 | 0.0 | 0.00 | 0.00 | 0.00 | 60 | 995.0 |
| 20260901162010 | 93 | 0 | 0.0 | 0.0 | 0.00 | 0.00 | 0.00 | 59 | 995.2 |
| 20260901160500 | 92 | 0 | 0.0 | 0.0 | 0.00 | 0.00 | 0.00 | 61 | 995.4 |
| 20260901155008 | 91 | 0 | 0.0 | 0.0 | 0.00 | 0.00 | 0.00 | 63 | 995.6 |
| 20260901153451 | 91 | 0 | 0.0 | 0.0 | 0.00 | 0.00 | 0.00 | 68 | 995.8 |
| 20260901152642 | 90 | 0 | 0.0 | 0.0 | 0.00 | 0.00 | 0.00 | 69 | 996.0 |
| 20260901150447 | 89 | 0 | 0.0 | 0.0 | 0.00 | 0.00 | 0.00 | 72 | 996.0 |
| 20260901144943 | 87 | 0 | 0.0 | 0.0 | 0.00 | 0.00 | 0.00 | 74 | 996.1 |
| 20260901143443 | 86 | 0 | 0.0 | 0.0 | 0.00 | 0.00 | 0.00 | 80 | 996.0 |
| 20260901142645 | 83 | 0 | 0.0 | 0.0 | 0.00 | 0.00 | 0.00 | 84 | 996.0 |
| 20260901140441 | 81 | 0 | 0.0 | 0.0 | 0.00 | 0.00 | 0.00 | 88 | 995.9 |
| 20260901134939 | 78 | 0 | 0.0 | 0.0 | 0.00 | 0.00 | 0.00 | 92 | 995.9 |
| 20260901133439 | 77 | 0 | 0.0 | 0.0 | 0.00 | 0.00 | 0.00 | 93 | 995.9 |
| 20260901131939 | 76 | 0 | 0.0 | 0.0 | 0.00 | 0.00 | 0.00 | 94 | 995.8 |
| 20260901130439 | 76 | 0 | 0.0 | 0.0 | 0.00 | 0.00 | 0.00 | 94 | 995.8 |
| 20260901124939 | 75 | 0 | 0.0 | 0.0 | 0.00 | 0.00 | 0.00 | 94 | 995.7 |
| 20260901123439 | 74 | 0 | 0.0 | 0.0 | 0.00 | 0.00 | 0.00 | 95 | 995.7 |
| 20260901121938 | 74 | 0 | 0.0 | 0.0 | 0.00 | 0.00 | 0.00 | 94 | 995.7 |
| 20260901120437 | 74 | 0 | 0.0 | 0.0 | 0.00 | 0.00 | 0.00 | 94 | 995.7 |
| 20260901114934 | 74 | 0 | 0.0 | 0.0 | 0.00 | 0.00 | 0.00 | 94 | 995.4 |
| 20260901113435 | 74 | 0 | 0.0 | 0.0 | 0.00 | 0.00 | 0.00 | 94 | 995.3 |
| 20260901111933 | 74 | 0 | 0.0 | 0.0 | 0.00 | 0.00 | 0.00 | 94 | 995.1 |
| 20260901111122 | 74 | 0 | 0.0 | 0.0 | 0.00 | 0.00 | 0.00 | 94 | 995.0 |
| 20260901104928 | 74 | 0 | 0.0 | 0.0 | 0.00 | 0.00 | 0.00 | 94 | 994.9 |
| 20260901103424 | 74 | 0 | 0.0 | 0.0 | 0.00 | 0.00 | 0.00 | 94 | 994.7 |
| 20260901101924 | 74 | 0 | 0.0 | 0.0 | 0.00 | 0.00 | 0.00 | 93 | 994.7 |
| 20260901100422 | 74 | 0 | 0.0 | 0.0 | 0.00 | 0.00 | 0.00 | 93 | 994.6 |
| 20260901094921 | 74 | 0 | 0.0 | 0.0 | 0.00 | 0.00 | 0.00 | 93 | 994.7 |
| 20260901093420 | 74 | 0 | 0.0 | 0.0 | 0.00 | 0.00 | 0.00 | 92 | 994.6 |
| 20260901091920 | 75 | 0 | 0.0 | 0.0 | 0.00 | 0.00 | 0.00 | 91 | 994.7 |
| 20260901090419 | 75 | 0 | 0.0 | 0.0 | 0.00 | 0.00 | 0.00 | 90 | 994.6 |
| 20260901084917 | 75 | 0 | 0.0 | 0.0 | 0.00 | 0.00 | 0.00 | 89 | 994.8 |
| 20260901083414 | 75 | 0 | 0.0 | 0.0 | 0.00 | 0.00 | 0.00 | 89 | 994.8 |
| 20260901081914 | 76 | 0 | 0.0 | 0.0 | 0.00 | 0.00 | 0.00 | 89 | 994.9 |
| 20260901081117 | 76 | 0 | 0.0 | 0.0 | 0.00 | 0.00 | 0.00 | 89 | 994.9 |
| 20260901074916 | 76 | 0 | 0.0 | 0.0 | 0.00 | 0.00 | 0.00 | 88 | 994.9 |
| 20260901073414 | 76 | 0 | 0.0 | 0.0 | 0.00 | 0.00 | 0.00 | 89 | 995.2 |
| 20260901071912 | 76 | 0 | 0.0 | 0.0 | 0.00 | 0.00 | 0.00 | 89 | 995.2 |
| 20260901070409 | 76 | 0 | 0.0 | 0.0 | 0.00 | 0.00 | 0.00 | 89 | 995.3 |
| 20260901064908 | 76 | 0 | 0.0 | 0.0 | 0.00 | 0.00 | 0.00 | 88 | 995.3 |
| 20260901064106 | 77 | 0 | 0.0 | 0.0 | 0.00 | 0.00 | 0.00 | 88 | 995.4 |
| 20260901061904 | 77 | 0 | 0.0 | 0.0 | 0.00 | 0.00 | 0.00 | 87 | 995.4 |
| 20260901060408 | 77 | 0 | 0.0 | 0.0 | 0.00 | 0.00 | 0.00 | 87 | 995.4 |
| 20260901054902 | 78 | 0 | 0.0 | 0.0 | 0.00 | 0.00 | 0.00 | 87 | 995.5 |
| 20260901053402 | 78 | 0 | 0.0 | 0.0 | 0.00 | 0.00 | 0.00 | 88 | 995.6 |
| 20260901051900 | 78 | 0 | 0.0 | 0.0 | 0.00 | 0.00 | 0.00 | 87 | 995.6 |
| 20260901050358 | 78 | 0 | 0.0 | 0.0 | 0.00 | 0.00 | 0.00 | 86 | 995.7 |
| 20260901044858 | 79 | 0 | 0.0 | 0.0 | 0.00 | 0.00 | 0.00 | 87 | 995.6 |
| 20260901043356 | 79 | 0 | 0.0 | 0.0 | 0.00 | 0.00 | 0.00 | 87 | 995.6 |
| 20260901043245 | 79 | 0 | 0.0 | 0.0 | 0.00 | 0.00 | 0.00 | 86 | 995.5 |
| 20260901040351 | 78 | 0 | 0.0 | 0.0 | 0.00 | 0.00 | 0.00 | 87 | 995.6 |
| 20260901034853 | 78 | 0 | 0.0 | 0.0 | 0.00 | 0.00 | 0.00 | 86 | 995.6 |
| 20260901033349 | 79 | 0 | 0.0 | 0.0 | 0.00 | 0.00 | 0.00 | 84 | 995.5 |
| 20260901031849 | 79 | 0 | 0.0 | 0.0 | 0.00 | 0.00 | 0.00 | 83 | 995.4 |
| 20260901030348 | 79 | 0 | 0.0 | 0.0 | 0.00 | 0.00 | 0.00 | 82 | 995.2 |
| 20260901024847 | 79 | 0 | 0.0 | 0.0 | 0.00 | 0.00 | 0.00 | 81 | 995.3 |
| 20260901023345 | 80 | 0 | 0.0 | 0.0 | 0.00 | 0.00 | 0.00 | 80 | 995.3 |
| 20260901021845 | 80 | 0 | 0.0 | 0.0 | 0.00 | 0.00 | 0.00 | 81 | 995.2 |
| 20260901020344 | 80 | 0 | 0.0 | 0.0 | 0.00 | 0.00 | 0.00 | 81 | 995.3 |
| 20260901014845 | 80 | 0 | 0.0 | 0.0 | 0.00 | 0.00 | 0.00 | 81 | 995.3 |
| 20260901013345 | 80 | 0 | 0.0 | 0.0 | 0.00 | 0.00 | 0.00 | 80 | 995.2 |
| 20260901011845 | 80 | 0 | 0.0 | 0.0 | 0.00 | 0.00 | 0.00 | 81 | 995.0 |
| 20260901010343 | 80 | 0 | 0.0 | 0.0 | 0.00 | 0.00 | 0.00 | 82 | 994.9 |
| 20260901004843 | 80 | 0 | 0.0 | 0.0 | 0.00 | 0.00 | 0.00 | 83 | 994.7 |
| 20260901003342 | 81 | 0 | 0.0 | 0.0 | 0.00 | 0.00 | 0.00 | 82 | 994.7 |
| 20260901001840 | 81 | 0 | 0.0 | 0.0 | 0.00 | 0.00 | 0.00 | 81 | 994.5 |
| 20260901000340 | 82 | 0 | 0.0 | 0.0 | 0.00 | 0.00 | 0.00 | 83 | 994.4 |
| 20260831234840 | 82 | 0 | 0.0 | 0.0 | 0.00 | 0.00 | 0.00 | 83 | 994.5 |
| 20260831233339 | 83 | 0 | 0.0 | 0.0 | 0.00 | 0.00 | 0.00 | 83 | 994.5 |
| 20260831232529 | 84 | 0 | 0.0 | 0.0 | 0.00 | 0.00 | 0.00 | 82 | 994.5 |
| 20260831230337 | 84 | 0 | 0.0 | 0.0 | 0.00 | 0.00 | 0.00 | 80 | 994.4 |
| 20260831224836 | 85 | 0 | 0.0 | 0.0 | 0.00 | 0.00 | 0.00 | 78 | 994.5 |